Weather History for TNCM - September, 2012

Change the Weather History Date:

Saturday, September 29, 2012

  Actual Average (WUND) Record (WUND)
Temperature  
Mean Temperature 85 °F -  
Max Temperature 88 °F 86 °F - (-1)
Min Temperature 82 °F 76 °F - (-1)
Cooling Degree Days 20    
Growing Degree Days 35 (Base 50)    
Moisture  
Dew Point 75 °F    
Average Humidity 72    
Maximum Humidity 79    
Minimum Humidity 62    
Precipitation  
Precipitation 0.00 in 0.14 in - ()
Sea Level Pressure  
Sea Level Pressure 29.98 in    
Wind  
Wind Speed 6 mph ()    
Max Wind Speed 10 mph    
Max Gust Speed -    
Visibility 6.2 miles    
Events      
Averages and records for this station are not official NWS values.
T = Trace of Precipitation, MM = Missing Value Source: Averaged Metar Reports

Daily Weather History Graph

Daily Weather History Graph

Search for Another Location

Airport or City:

Trip Planner

Search our weather history database for the weather conditions in past years. The results will help you decide how hot, cold, wet, or windy it might be!

Date:

Astronomy

Sep. 29, 2012 Rise Set
Actual Time 6:02 AM AST 6:02 PM AST
Civil Twilight 5:40 AM AST 6:24 PM AST
Nautical Twilight 5:15 AM AST 6:49 PM AST
Astronomical Twilight 4:50 AM AST 7:14 PM AST
Moon 5:38 PM AST (9/29) 5:27 AM AST (9/29)
Length of Visible Light 12h 43m
Length of Day
11h 59m
Full, 100% of the Moon is Illuminated
Sep 29
Full
Sep 29
Full
Oct 8
Last Quarter
Oct 15
New
Oct 21
First Quarter

Hourly Weather History & Observations

Time (AST) Temp. Heat Index Dew Point Humidity Pressure Visibility Wind Dir Wind Speed Gust Speed Precip Events Conditions
12:00 AM 82.4 °F 88.2 °F 73.4 °F 74% 29.98 in 6.2 mi ESE 4.6 mph - N/A   Partly Cloudy
1:00 AM 82.4 °F 88.2 °F 73.4 °F 74% 29.95 in 6.2 mi SE 10.4 mph - N/A   Partly Cloudy
2:00 AM 83 °F - 74 °F 67% 29.96 in 22 mi ESE 5.8 mph - -   Scattered Clouds
2:00 AM 82.4 °F 88.2 °F 73.4 °F 74% 29.95 in 6.2 mi ESE 5.8 mph - N/A   Partly Cloudy
3:00 AM 82.4 °F 88.2 °F 73.4 °F 74% 29.95 in 6.2 mi ESE 5.8 mph - N/A   Partly Cloudy
4:00 AM 82.4 °F 89.5 °F 75.2 °F 79% 29.95 in 6.2 mi SE 5.8 mph - N/A   Partly Cloudy
5:00 AM 82 °F - 74 °F 72% 29.96 in 37 mi ESE 5.8 mph - -   Scattered Clouds
5:00 AM 82.4 °F 89.5 °F 75.2 °F 79% 29.95 in 6.2 mi ESE 5.8 mph - N/A   Partly Cloudy
6:00 AM 82.4 °F 88.2 °F 73.4 °F 74% 29.98 in 6.2 mi ESE 4.6 mph - N/A   Partly Cloudy
7:00 AM 84.2 °F 92.3 °F 75.2 °F 74% 29.98 in 6.2 mi SE 5.8 mph - N/A   Scattered Clouds
8:00 AM 85 °F - 75 °F 65% 30.01 in 44 mi SSE 9.2 mph - -  
8:00 AM 84.2 °F 92.3 °F 75.2 °F 74% 30.01 in 6.2 mi SE 9.2 mph - N/A   Partly Cloudy
9:00 AM 86.0 °F 95.1 °F 75.2 °F 70% 30.01 in 6.2 mi SE 10.4 mph - N/A   Partly Cloudy
10:00 AM 86.0 °F 95.1 °F 75.2 °F 70% 30.01 in 6.2 mi SE 9.2 mph - N/A   Partly Cloudy
11:00 AM 87 °F - 76 °F 62% 30.02 in 44 mi SSE 8.1 mph - -   Scattered Clouds
11:00 AM 86.0 °F 95.1 °F 75.2 °F 70% 30.01 in 6.2 mi SE 9.2 mph - N/A   Partly Cloudy
12:00 PM 87.8 °F 99.7 °F 77.0 °F 70% 29.98 in 6.2 mi SE 8.1 mph - N/A   Partly Cloudy
1:00 PM 87.8 °F 97.6 °F 75.2 °F 66% 29.98 in 6.2 mi SE 9.2 mph - N/A   Partly Cloudy
2:00 PM - - - %  in 44 mi SE 9.2 mph - -  
2:00 PM 87.8 °F 97.6 °F 75.2 °F 66% 29.95 in 6.2 mi SE 9.2 mph - N/A   Partly Cloudy
3:00 PM 87.8 °F 97.6 °F 75.2 °F 66% 29.95 in 6.2 mi SSE 5.8 mph - N/A   Partly Cloudy
4:00 PM 86.0 °F 95.1 °F 75.2 °F 70% 29.95 in 6.2 mi SE 5.8 mph - N/A   Partly Cloudy
5:00 PM 86 °F - 76 °F 66% 29.96 in 44 mi SE 8.1 mph - -  
5:00 PM 86.0 °F 96.9 °F 77.0 °F 74% 29.95 in 6.2 mi SE 8.1 mph - N/A   Partly Cloudy
6:00 PM 84.2 °F 92.3 °F 75.2 °F 74% 29.95 in 6.2 mi ESE 6.9 mph - N/A   Partly Cloudy
7:00 PM 84.2 °F 92.3 °F 75.2 °F 74% 29.98 in 6.2 mi ESE 8.1 mph - N/A   Partly Cloudy
8:00 PM 84 °F - 75 °F 68% 30.00 in 37 mi ESE 5.8 mph - -   Partly Cloudy
8:00 PM 84.2 °F 92.3 °F 75.2 °F 74% 29.98 in 6.2 mi ESE 5.8 mph - N/A   Scattered Clouds
9:00 PM 84.2 °F 92.3 °F 75.2 °F 74% 30.01 in 6.2 mi ESE 5.8 mph - N/A   Partly Cloudy
10:00 PM 84.2 °F 92.3 °F 75.2 °F 74% 30.01 in 6.2 mi ESE 6.9 mph - N/A   Scattered Clouds
11:00 PM 83 °F - 76 °F 74% 30.00 in 22 mi SE 6.9 mph - -   Scattered Clouds
11:00 PM 84.2 °F 94.1 °F 77.0 °F 79% 30.01 in 6.2 mi ESE 6.9 mph - N/A   Partly Cloudy